Year,Month,Day,Hour,Minute,Value (Times are PST for temperature in C)
2014,06,21,00,00,9.80
2014,06,21,00,01,9.80
2014,06,21,00,02,9.80
2014,06,21,00,03,9.80
2014,06,21,00,04,9.80
2014,06,21,00,05,9.80
2014,06,21,00,06,9.80
2014,06,21,00,07,9.70
2014,06,21,00,08,9.70
2014,06,21,00,09,9.70
2014,06,21,00,10,9.80
2014,06,21,00,11,9.70
2014,06,21,00,12,9.70
2014,06,21,00,13,9.70
2014,06,21,00,14,9.70
2014,06,21,00,15,9.70
2014,06,21,00,16,9.70
2014,06,21,00,17,9.70
2014,06,21,00,18,9.60
2014,06,21,00,19,9.60
2014,06,21,00,20,9.60
2014,06,21,00,21,9.60
2014,06,21,00,22,9.50
2014,06,21,00,23,9.50
2014,06,21,00,24,9.50
2014,06,21,00,25,9.40
2014,06,21,00,26,9.40
2014,06,21,00,27,9.40
2014,06,21,00,28,9.40
2014,06,21,00,29,9.40
2014,06,21,00,30,9.40
2014,06,21,00,31,9.40
2014,06,21,00,32,9.40
2014,06,21,00,33,9.40
2014,06,21,00,34,9.40
2014,06,21,00,35,9.40
2014,06,21,00,36,9.40
2014,06,21,00,37,9.40
2014,06,21,00,38,9.40
2014,06,21,00,39,9.40
2014,06,21,00,40,9.30
2014,06,21,00,41,9.30
2014,06,21,00,42,9.30
2014,06,21,00,43,9.30
2014,06,21,00,44,9.30
2014,06,21,00,45,9.30
2014,06,21,00,46,9.30
2014,06,21,00,47,9.30
2014,06,21,00,48,9.30
2014,06,21,00,49,9.30
2014,06,21,00,50,9.30
2014,06,21,00,51,9.20
2014,06,21,00,52,9.20
2014,06,21,00,53,9.20
2014,06,21,00,54,9.20
2014,06,21,00,55,9.20
2014,06,21,00,56,9.20
2014,06,21,00,57,9.10
2014,06,21,00,58,9.10
2014,06,21,00,59,9.10
2014,06,21,01,00,9.10
2014,06,21,01,01,9.10
2014,06,21,01,02,9.10
2014,06,21,01,03,9.00
2014,06,21,01,04,9.00
2014,06,21,01,05,9.00
2014,06,21,01,06,9.00
2014,06,21,01,07,9.00
2014,06,21,01,08,8.90
2014,06,21,01,09,8.90
2014,06,21,01,10,8.90
2014,06,21,01,11,8.90
2014,06,21,01,12,8.90
2014,06,21,01,13,8.90
2014,06,21,01,14,8.90
2014,06,21,01,15,8.90
2014,06,21,01,16,8.90
2014,06,21,01,17,8.90
2014,06,21,01,18,8.90
2014,06,21,01,19,8.90
2014,06,21,01,20,8.90
2014,06,21,01,21,8.90
2014,06,21,01,22,8.90
2014,06,21,01,23,8.90
2014,06,21,01,24,8.90
2014,06,21,01,25,8.90
2014,06,21,01,26,8.90
2014,06,21,01,27,8.90
2014,06,21,01,28,8.90
2014,06,21,01,29,9.00
2014,06,21,01,30,9.00
2014,06,21,01,31,8.90
2014,06,21,01,32,8.90
2014,06,21,01,33,8.90
2014,06,21,01,34,8.90
2014,06,21,01,35,8.90
2014,06,21,01,36,9.00
2014,06,21,01,37,8.90
2014,06,21,01,38,8.90
2014,06,21,01,39,8.90
2014,06,21,01,40,8.90
2014,06,21,01,41,8.90
2014,06,21,01,42,8.90
2014,06,21,01,43,8.90
2014,06,21,01,44,8.90
2014,06,21,01,45,8.90
2014,06,21,01,46,8.90
2014,06,21,01,47,8.90
2014,06,21,01,48,8.90
2014,06,21,01,49,8.90
2014,06,21,01,50,8.90
2014,06,21,01,51,8.90
2014,06,21,01,52,8.90
2014,06,21,01,53,8.90
2014,06,21,01,54,8.90
2014,06,21,01,55,8.80
2014,06,21,01,56,8.80
2014,06,21,01,57,8.80
2014,06,21,01,58,8.80
2014,06,21,01,59,8.80
2014,06,21,02,00,8.80
2014,06,21,02,01,8.80
2014,06,21,02,02,8.80
2014,06,21,02,03,8.80
2014,06,21,02,04,8.80
2014,06,21,02,05,8.80
2014,06,21,02,06,8.80
2014,06,21,02,07,8.80
2014,06,21,02,08,8.80
2014,06,21,02,09,8.80
2014,06,21,02,10,8.70
2014,06,21,02,11,8.70
2014,06,21,02,12,8.70
2014,06,21,02,13,8.70
2014,06,21,02,14,8.70
2014,06,21,02,15,8.70
2014,06,21,02,16,8.70
2014,06,21,02,17,8.70
2014,06,21,02,18,8.70
2014,06,21,02,19,8.70
2014,06,21,02,20,8.70
2014,06,21,02,21,8.70
2014,06,21,02,22,8.70
2014,06,21,02,23,8.70
2014,06,21,02,24,8.70
2014,06,21,02,25,8.70
2014,06,21,02,26,8.80
2014,06,21,02,27,8.80
2014,06,21,02,28,8.80
2014,06,21,02,29,8.80
2014,06,21,02,30,8.80
2014,06,21,02,31,8.80
2014,06,21,02,32,8.80
2014,06,21,02,33,8.80
2014,06,21,02,34,8.80
2014,06,21,02,35,8.80
2014,06,21,02,36,8.80
2014,06,21,02,37,8.80
2014,06,21,02,38,8.80
2014,06,21,02,39,8.80
2014,06,21,02,40,8.80
2014,06,21,02,41,8.80
2014,06,21,02,42,8.80
2014,06,21,02,43,8.80
2014,06,21,02,44,8.80
2014,06,21,02,45,8.80
2014,06,21,02,46,8.80
2014,06,21,02,47,8.80
2014,06,21,02,48,8.80
2014,06,21,02,49,8.80
2014,06,21,02,50,8.80
2014,06,21,02,51,8.80
2014,06,21,02,52,8.80
2014,06,21,02,53,8.80
2014,06,21,02,54,8.80
2014,06,21,02,55,8.80
2014,06,21,02,56,8.80
2014,06,21,02,57,8.80
2014,06,21,02,58,8.80
2014,06,21,02,59,8.80
2014,06,21,03,00,8.80
2014,06,21,03,01,8.70
2014,06,21,03,02,8.70
2014,06,21,03,03,8.70
2014,06,21,03,04,8.70
2014,06,21,03,05,8.70
2014,06,21,03,06,8.70
2014,06,21,03,07,8.60
2014,06,21,03,08,8.60
2014,06,21,03,09,8.60
2014,06,21,03,10,8.60
2014,06,21,03,11,8.60
2014,06,21,03,12,8.60
2014,06,21,03,13,8.60
2014,06,21,03,14,8.60
2014,06,21,03,15,8.70
2014,06,21,03,16,8.60
2014,06,21,03,17,8.60
2014,06,21,03,18,8.60
2014,06,21,03,19,8.60
2014,06,21,03,20,8.60
2014,06,21,03,21,8.60
2014,06,21,03,22,8.60
2014,06,21,03,23,8.60
2014,06,21,03,24,8.60
2014,06,21,03,25,8.60
2014,06,21,03,26,8.60
2014,06,21,03,27,8.60
2014,06,21,03,28,8.60
2014,06,21,03,29,8.60
2014,06,21,03,30,8.60
2014,06,21,03,31,8.70
2014,06,21,03,32,8.60
2014,06,21,03,33,8.60
2014,06,21,03,34,8.60
2014,06,21,03,35,8.60
2014,06,21,03,36,8.60
2014,06,21,03,37,8.60
2014,06,21,03,38,8.70
2014,06,21,03,39,8.60
2014,06,21,03,40,8.60
2014,06,21,03,41,8.60
2014,06,21,03,42,8.60
2014,06,21,03,43,8.60
2014,06,21,03,44,8.60
2014,06,21,03,45,8.60
2014,06,21,03,46,8.70
2014,06,21,03,47,8.70
2014,06,21,03,48,8.70
2014,06,21,03,49,8.70
2014,06,21,03,50,8.70
2014,06,21,03,51,8.70
2014,06,21,03,52,8.70
2014,06,21,03,53,8.60
2014,06,21,03,54,8.60
2014,06,21,03,55,8.60
2014,06,21,03,56,8.60
2014,06,21,03,57,8.60
2014,06,21,03,58,8.60
2014,06,21,03,59,8.60
2014,06,21,04,00,8.60
2014,06,21,04,01,8.60
2014,06,21,04,02,8.60
2014,06,21,04,03,8.60
2014,06,21,04,04,8.60
2014,06,21,04,05,8.70
2014,06,21,04,06,8.70
2014,06,21,04,07,8.70
2014,06,21,04,08,8.70
2014,06,21,04,09,8.70
2014,06,21,04,10,8.70
2014,06,21,04,11,8.60
2014,06,21,04,12,8.60
2014,06,21,04,13,8.60
2014,06,21,04,14,8.60
2014,06,21,04,15,8.60
2014,06,21,04,16,8.60
2014,06,21,04,17,8.60
2014,06,21,04,18,8.60
2014,06,21,04,19,8.60
2014,06,21,04,20,8.60
2014,06,21,04,21,8.50
2014,06,21,04,22,8.50
2014,06,21,04,23,8.50
2014,06,21,04,24,8.50
2014,06,21,04,25,8.50
2014,06,21,04,26,8.40
2014,06,21,04,27,8.40
2014,06,21,04,28,8.40
2014,06,21,04,29,8.40
2014,06,21,04,30,8.40
2014,06,21,04,31,8.40
2014,06,21,04,32,8.50
2014,06,21,04,33,8.50
2014,06,21,04,34,8.40
2014,06,21,04,35,8.50
2014,06,21,04,36,8.50
2014,06,21,04,37,8.50
2014,06,21,04,38,8.50
2014,06,21,04,39,8.50
2014,06,21,04,40,8.40
2014,06,21,04,41,8.40
2014,06,21,04,42,8.40
2014,06,21,04,43,8.40
2014,06,21,04,44,8.40
2014,06,21,04,45,8.40
2014,06,21,04,46,8.40
2014,06,21,04,47,8.40
2014,06,21,04,48,8.40
2014,06,21,04,49,8.40
2014,06,21,04,50,8.40
2014,06,21,04,51,8.40
2014,06,21,04,52,8.40
2014,06,21,04,53,8.40
2014,06,21,04,54,8.40
2014,06,21,04,55,8.40
2014,06,21,04,56,8.40
2014,06,21,04,57,8.50
2014,06,21,04,58,8.50
2014,06,21,04,59,8.50
2014,06,21,05,00,8.50
2014,06,21,05,01,8.60
2014,06,21,05,02,8.60
2014,06,21,05,03,8.60
2014,06,21,05,04,8.60
2014,06,21,05,05,8.60
2014,06,21,05,06,8.60
2014,06,21,05,07,8.60
2014,06,21,05,08,8.60
2014,06,21,05,09,8.60
2014,06,21,05,10,8.60
2014,06,21,05,11,8.60
2014,06,21,05,12,8.50
2014,06,21,05,13,8.50
2014,06,21,05,14,8.50
2014,06,21,05,15,8.50
2014,06,21,05,16,8.50
2014,06,21,05,17,8.50
2014,06,21,05,18,8.50
2014,06,21,05,19,8.50
2014,06,21,05,20,8.60
2014,06,21,05,21,8.60
2014,06,21,05,22,8.60
2014,06,21,05,23,8.60
2014,06,21,05,24,8.60
2014,06,21,05,25,8.50
2014,06,21,05,26,8.50
2014,06,21,05,27,8.50
2014,06,21,05,28,8.50
2014,06,21,05,29,8.50
2014,06,21,05,30,8.50
2014,06,21,05,31,8.50
2014,06,21,05,32,8.60
2014,06,21,05,33,8.60
2014,06,21,05,34,8.60
2014,06,21,05,35,8.60
2014,06,21,05,36,8.50
2014,06,21,05,37,8.50
2014,06,21,05,38,8.50
2014,06,21,05,39,8.50
2014,06,21,05,40,8.50
2014,06,21,05,41,8.50
2014,06,21,05,42,8.50
2014,06,21,05,43,8.40
2014,06,21,05,44,8.40
2014,06,21,05,45,8.40
2014,06,21,05,46,8.40
2014,06,21,05,47,8.50
2014,06,21,05,48,8.40
2014,06,21,05,49,8.40
2014,06,21,05,50,8.40
2014,06,21,05,51,8.50
2014,06,21,05,52,8.50
2014,06,21,05,53,8.50
2014,06,21,05,54,8.50
2014,06,21,05,55,8.60
2014,06,21,05,56,8.60
2014,06,21,05,57,8.60
2014,06,21,05,58,8.60
2014,06,21,05,59,8.50
2014,06,21,06,00,8.50
2014,06,21,06,01,8.50
2014,06,21,06,02,8.50
2014,06,21,06,03,8.50
2014,06,21,06,04,8.50
2014,06,21,06,05,8.60
2014,06,21,06,06,8.60
2014,06,21,06,07,8.60
2014,06,21,06,08,8.60
2014,06,21,06,09,8.60
2014,06,21,06,10,8.60
2014,06,21,06,11,8.70
2014,06,21,06,12,8.70
2014,06,21,06,13,8.70
2014,06,21,06,14,8.70
2014,06,21,06,15,8.70
2014,06,21,06,16,8.70
2014,06,21,06,17,8.70
2014,06,21,06,18,8.70
2014,06,21,06,19,8.70
2014,06,21,06,20,8.70
2014,06,21,06,21,8.60
2014,06,21,06,22,8.60
2014,06,21,06,23,8.60
2014,06,21,06,24,8.60
2014,06,21,06,25,8.60
2014,06,21,06,26,8.60
2014,06,21,06,27,8.60
2014,06,21,06,28,8.60
2014,06,21,06,29,8.60
2014,06,21,06,30,8.60
2014,06,21,06,31,8.60
2014,06,21,06,32,8.60
2014,06,21,06,33,8.60
2014,06,21,06,34,8.60
2014,06,21,06,35,8.60
2014,06,21,06,36,8.60
2014,06,21,06,37,8.60
2014,06,21,06,38,8.60
2014,06,21,06,39,8.60
2014,06,21,06,40,8.60
2014,06,21,06,41,8.60
2014,06,21,06,42,8.70
2014,06,21,06,43,8.70
2014,06,21,06,44,8.70
2014,06,21,06,45,8.70
2014,06,21,06,46,8.70
2014,06,21,06,47,8.70
2014,06,21,06,48,8.70
2014,06,21,06,49,8.70
2014,06,21,06,50,8.70
2014,06,21,06,51,8.70
2014,06,21,06,52,8.70
2014,06,21,06,53,8.80
2014,06,21,06,54,8.80
2014,06,21,06,55,8.80
2014,06,21,06,56,8.80
2014,06,21,06,57,8.80
2014,06,21,06,58,8.80
2014,06,21,06,59,8.80
2014,06,21,07,00,8.80
2014,06,21,07,01,8.80
2014,06,21,07,02,8.80
2014,06,21,07,03,8.80
2014,06,21,07,04,8.80
2014,06,21,07,05,8.90
2014,06,21,07,06,8.90
2014,06,21,07,07,8.90
2014,06,21,07,08,8.90
2014,06,21,07,09,9.00
2014,06,21,07,10,9.00
2014,06,21,07,11,9.10
2014,06,21,07,12,9.20
2014,06,21,07,13,9.20
2014,06,21,07,14,9.20
2014,06,21,07,15,9.30
2014,06,21,07,16,9.30
2014,06,21,07,17,9.40
2014,06,21,07,18,9.40
2014,06,21,07,19,9.40
2014,06,21,07,20,9.50
2014,06,21,07,21,9.60
2014,06,21,07,22,9.60
2014,06,21,07,23,9.70
2014,06,21,07,24,9.70
2014,06,21,07,25,9.80
2014,06,21,07,26,9.80
2014,06,21,07,27,9.80
2014,06,21,07,28,9.80
2014,06,21,07,29,9.80
2014,06,21,07,30,9.90
2014,06,21,07,31,9.90
2014,06,21,07,32,9.90
2014,06,21,07,33,10.00
2014,06,21,07,34,10.10
2014,06,21,07,35,10.10
2014,06,21,07,36,10.20
2014,06,21,07,37,10.20
2014,06,21,07,38,10.30
2014,06,21,07,39,10.30
2014,06,21,07,40,10.40
2014,06,21,07,41,10.50
2014,06,21,07,42,10.50
2014,06,21,07,43,10.60
2014,06,21,07,44,10.60
2014,06,21,07,45,10.70
2014,06,21,07,46,10.70
2014,06,21,07,47,10.80
2014,06,21,07,48,10.80
2014,06,21,07,49,10.90
2014,06,21,07,50,10.90
2014,06,21,07,51,11.00
2014,06,21,07,52,11.00
2014,06,21,07,53,11.10
2014,06,21,07,54,11.10
2014,06,21,07,55,11.10
2014,06,21,07,56,11.20
2014,06,21,07,57,11.20
2014,06,21,07,58,11.20
2014,06,21,07,59,11.30
2014,06,21,08,00,11.30
2014,06,21,08,01,11.30
2014,06,21,08,02,11.40
2014,06,21,08,03,11.40
2014,06,21,08,04,11.40
2014,06,21,08,05,11.50
2014,06,21,08,06,11.60
2014,06,21,08,07,11.60
2014,06,21,08,08,11.60
2014,06,21,08,09,11.60
2014,06,21,08,10,11.70
2014,06,21,08,11,11.70
2014,06,21,08,12,11.70
2014,06,21,08,13,11.70
2014,06,21,08,14,11.70
2014,06,21,08,15,11.70
2014,06,21,08,16,11.70
2014,06,21,08,17,11.80
2014,06,21,08,18,11.80
2014,06,21,08,19,11.80
2014,06,21,08,20,11.80
2014,06,21,08,21,11.80
2014,06,21,08,22,11.80
2014,06,21,08,23,11.80
2014,06,21,08,24,11.90
2014,06,21,08,25,11.90
2014,06,21,08,26,11.90
2014,06,21,08,27,12.00
2014,06,21,08,28,12.00
2014,06,21,08,29,12.00
2014,06,21,08,30,12.10
2014,06,21,08,31,12.10
2014,06,21,08,32,12.10
2014,06,21,08,33,12.10
2014,06,21,08,34,12.10
2014,06,21,08,35,12.10
2014,06,21,08,36,12.20
2014,06,21,08,37,12.20
2014,06,21,08,38,12.20
2014,06,21,08,39,12.20
2014,06,21,08,40,12.20
2014,06,21,08,41,12.20
2014,06,21,08,42,12.20
2014,06,21,08,43,12.30
2014,06,21,08,44,12.30
2014,06,21,08,45,12.30
2014,06,21,08,46,12.40
2014,06,21,08,47,12.40
2014,06,21,08,48,12.50
2014,06,21,08,49,12.50
2014,06,21,08,50,12.60
2014,06,21,08,51,12.60
2014,06,21,08,52,12.70
2014,06,21,08,53,12.80
2014,06,21,08,54,12.80
2014,06,21,08,55,12.90
2014,06,21,08,56,13.00
2014,06,21,08,57,13.10
2014,06,21,08,58,13.10
2014,06,21,08,59,13.20
2014,06,21,09,00,13.30
2014,06,21,09,01,13.40
2014,06,21,09,02,13.50
2014,06,21,09,03,13.60
2014,06,21,09,04,13.70
2014,06,21,09,05,13.80
2014,06,21,09,06,13.90
2014,06,21,09,07,14.00
2014,06,21,09,08,14.10
2014,06,21,09,09,14.20
2014,06,21,09,10,14.30
2014,06,21,09,11,14.40
2014,06,21,09,12,14.50
2014,06,21,09,13,14.60
2014,06,21,09,14,14.70
2014,06,21,09,15,14.80
2014,06,21,09,16,14.90
2014,06,21,09,17,15.00
2014,06,21,09,18,15.00
2014,06,21,09,19,15.00
2014,06,21,09,20,15.00
2014,06,21,09,21,15.00
2014,06,21,09,22,15.00
2014,06,21,09,23,15.00
2014,06,21,09,24,15.00
2014,06,21,09,25,15.00
2014,06,21,09,26,15.00
2014,06,21,09,27,15.20
2014,06,21,09,28,15.30
2014,06,21,09,29,15.40
2014,06,21,09,30,15.50
2014,06,21,09,31,15.60
2014,06,21,09,32,15.70
2014,06,21,09,33,15.70
2014,06,21,09,34,15.80
2014,06,21,09,35,15.90
2014,06,21,09,36,15.90
2014,06,21,09,37,15.90
2014,06,21,09,38,15.90
2014,06,21,09,39,15.90
2014,06,21,09,40,16.00
2014,06,21,09,41,15.90
2014,06,21,09,42,15.90
2014,06,21,09,43,15.90
2014,06,21,09,44,15.80
2014,06,21,09,45,15.80
2014,06,21,09,46,15.80
2014,06,21,09,47,15.80
2014,06,21,09,48,15.80
2014,06,21,09,49,15.80
2014,06,21,09,50,15.80
2014,06,21,09,51,15.80
2014,06,21,09,52,15.80
2014,06,21,09,53,15.70
2014,06,21,09,54,15.70
2014,06,21,09,55,15.70
2014,06,21,09,56,15.80
2014,06,21,09,57,15.80
2014,06,21,09,58,15.90
2014,06,21,09,59,15.90
2014,06,21,10,00,15.90
2014,06,21,10,01,15.90
2014,06,21,10,02,16.00
2014,06,21,10,03,15.90
2014,06,21,10,04,15.90
2014,06,21,10,05,15.90
2014,06,21,10,06,15.90
2014,06,21,10,07,15.90
2014,06,21,10,08,15.90
2014,06,21,10,09,15.90
2014,06,21,10,10,15.80
2014,06,21,10,11,15.80
2014,06,21,10,12,15.80
2014,06,21,10,13,15.80
2014,06,21,10,14,15.70
2014,06,21,10,15,15.70
2014,06,21,10,16,15.60
2014,06,21,10,17,15.70
2014,06,21,10,18,15.70
2014,06,21,10,19,15.70
2014,06,21,10,20,15.70
2014,06,21,10,21,15.70
2014,06,21,10,22,15.70
2014,06,21,10,23,15.80
2014,06,21,10,24,15.90
2014,06,21,10,25,15.90
2014,06,21,10,26,15.90
2014,06,21,10,27,16.00
2014,06,21,10,28,16.10
2014,06,21,10,29,16.00
2014,06,21,10,30,16.00
2014,06,21,10,31,15.90
2014,06,21,10,32,15.90
2014,06,21,10,33,15.80
2014,06,21,10,34,15.70
2014,06,21,10,35,15.70
2014,06,21,10,36,15.70
2014,06,21,10,37,15.60
2014,06,21,10,38,15.50
2014,06,21,10,39,15.40
2014,06,21,10,40,15.40
2014,06,21,10,41,15.40
2014,06,21,10,42,15.40
2014,06,21,10,43,15.40
2014,06,21,10,44,15.40
2014,06,21,10,45,15.30
2014,06,21,10,46,15.20
2014,06,21,10,47,15.00
2014,06,21,10,48,15.00
2014,06,21,10,49,15.00
2014,06,21,10,50,15.00
2014,06,21,10,51,15.00
2014,06,21,10,52,15.00
2014,06,21,10,53,15.00
2014,06,21,10,54,15.10
2014,06,21,10,55,15.20
2014,06,21,10,56,15.30
2014,06,21,10,57,15.30
2014,06,21,10,58,15.40
2014,06,21,10,59,15.50
2014,06,21,11,00,15.60
2014,06,21,11,01,15.70
2014,06,21,11,02,15.70
2014,06,21,11,03,15.80
2014,06,21,11,04,15.90
2014,06,21,11,05,15.90
2014,06,21,11,06,16.00
2014,06,21,11,07,16.00
2014,06,21,11,08,16.00
2014,06,21,11,09,16.00
2014,06,21,11,10,16.00
2014,06,21,11,11,16.10
2014,06,21,11,12,16.20
2014,06,21,11,13,16.20
2014,06,21,11,14,16.30
2014,06,21,11,15,16.30
2014,06,21,11,16,16.40
2014,06,21,11,17,16.40
2014,06,21,11,18,16.50
2014,06,21,11,19,16.60
2014,06,21,11,20,16.70
2014,06,21,11,21,16.70
2014,06,21,11,22,16.70
2014,06,21,11,23,16.70
2014,06,21,11,24,16.80
2014,06,21,11,25,16.80
2014,06,21,11,26,16.80
2014,06,21,11,27,16.90
2014,06,21,11,28,16.90
2014,06,21,11,29,17.00
2014,06,21,11,30,17.10
2014,06,21,11,31,17.20
2014,06,21,11,32,17.30
2014,06,21,11,33,17.40
2014,06,21,11,34,17.40
2014,06,21,11,35,17.50
2014,06,21,11,36,17.50
2014,06,21,11,37,17.50
2014,06,21,11,38,17.40
2014,06,21,11,39,17.40
2014,06,21,11,40,17.40
2014,06,21,11,41,17.40
2014,06,21,11,42,17.40
2014,06,21,11,43,17.30
2014,06,21,11,44,17.20
2014,06,21,11,45,17.10
2014,06,21,11,46,17.10
2014,06,21,11,47,17.00
2014,06,21,11,48,17.00
2014,06,21,11,49,17.00
2014,06,21,11,50,16.90
2014,06,21,11,51,16.90
2014,06,21,11,52,16.80
2014,06,21,11,53,16.80
2014,06,21,11,54,16.90
2014,06,21,11,55,16.90
2014,06,21,11,56,17.00
2014,06,21,11,57,17.00
2014,06,21,11,58,17.10
2014,06,21,11,59,17.20
2014,06,21,12,00,17.30
2014,06,21,12,01,17.30
2014,06,21,12,02,17.30
2014,06,21,12,03,17.40
2014,06,21,12,04,17.40
2014,06,21,12,05,17.50
2014,06,21,12,06,17.60
2014,06,21,12,07,17.60
2014,06,21,12,08,17.70
2014,06,21,12,09,17.70
2014,06,21,12,10,17.80
2014,06,21,12,11,17.80
2014,06,21,12,12,17.90
2014,06,21,12,13,17.90
2014,06,21,12,14,18.00
2014,06,21,12,15,18.10
2014,06,21,12,16,18.10
2014,06,21,12,17,18.00
2014,06,21,12,18,18.00
2014,06,21,12,19,17.90
2014,06,21,12,20,17.90
2014,06,21,12,21,17.80
2014,06,21,12,22,17.80
2014,06,21,12,23,17.80
2014,06,21,12,24,17.80
2014,06,21,12,25,17.80
2014,06,21,12,26,17.80
2014,06,21,12,27,17.90
2014,06,21,12,28,17.90
2014,06,21,12,29,17.90
2014,06,21,12,30,17.90
2014,06,21,12,31,18.00
2014,06,21,12,32,18.00
2014,06,21,12,33,18.10
2014,06,21,12,34,18.10
2014,06,21,12,35,18.10
2014,06,21,12,36,18.10
2014,06,21,12,37,18.10
2014,06,21,12,38,18.10
2014,06,21,12,39,18.20
2014,06,21,12,40,18.20
2014,06,21,12,41,18.10
2014,06,21,12,42,18.20
2014,06,21,12,43,18.10
2014,06,21,12,44,18.10
2014,06,21,12,45,18.10
2014,06,21,12,46,18.20
2014,06,21,12,47,18.20
2014,06,21,12,48,18.30
2014,06,21,12,49,18.40
2014,06,21,12,50,18.50
2014,06,21,12,51,18.60
2014,06,21,12,52,18.60
2014,06,21,12,53,18.60
2014,06,21,12,54,18.70
2014,06,21,12,55,18.70
2014,06,21,12,56,18.70
2014,06,21,12,57,18.70
2014,06,21,12,58,18.80
2014,06,21,12,59,18.70
2014,06,21,13,00,18.70
2014,06,21,13,01,18.70
2014,06,21,13,02,18.70
2014,06,21,13,03,18.70
2014,06,21,13,04,18.70
2014,06,21,13,05,18.70
2014,06,21,13,06,18.80
2014,06,21,13,07,18.80
2014,06,21,13,08,18.90
2014,06,21,13,09,19.00
2014,06,21,13,10,19.10
2014,06,21,13,11,19.20
2014,06,21,13,12,19.40
2014,06,21,13,13,19.60
2014,06,21,13,14,19.80
2014,06,21,13,15,19.90
2014,06,21,13,16,20.10
2014,06,21,13,17,20.20
2014,06,21,13,18,20.40
2014,06,21,13,19,20.50
2014,06,21,13,20,20.70
2014,06,21,13,21,20.80
2014,06,21,13,22,20.80
2014,06,21,13,23,20.80
2014,06,21,13,24,20.80
2014,06,21,13,25,20.80
2014,06,21,13,26,20.70
2014,06,21,13,27,20.70
2014,06,21,13,28,20.70
2014,06,21,13,29,20.70
2014,06,21,13,30,20.70
2014,06,21,13,31,20.70
2014,06,21,13,32,20.60
2014,06,21,13,33,20.60
2014,06,21,13,34,20.50
2014,06,21,13,35,20.40
2014,06,21,13,36,20.30
2014,06,21,13,37,20.20
2014,06,21,13,38,20.20
2014,06,21,13,39,20.20
2014,06,21,13,40,20.10
2014,06,21,13,41,20.10
2014,06,21,13,42,20.00
2014,06,21,13,43,20.00
2014,06,21,13,44,20.10
2014,06,21,13,45,20.10
2014,06,21,13,46,20.20
2014,06,21,13,47,20.20
2014,06,21,13,48,20.20
2014,06,21,13,49,20.20
2014,06,21,13,50,20.20
2014,06,21,13,51,20.20
2014,06,21,13,52,20.30
2014,06,21,13,53,20.40
2014,06,21,13,54,20.40
2014,06,21,13,55,20.50
2014,06,21,13,56,20.60
2014,06,21,13,57,20.60
2014,06,21,13,58,20.70
2014,06,21,13,59,20.70
2014,06,21,14,00,20.80
2014,06,21,14,01,20.80
2014,06,21,14,02,20.80
2014,06,21,14,03,20.70
2014,06,21,14,04,20.70
2014,06,21,14,05,20.70
2014,06,21,14,06,20.70
2014,06,21,14,07,20.70
2014,06,21,14,08,20.70
2014,06,21,14,09,20.60
2014,06,21,14,10,20.60
2014,06,21,14,11,20.60
2014,06,21,14,12,20.50
2014,06,21,14,13,20.30
2014,06,21,14,14,20.20
2014,06,21,14,15,20.20
2014,06,21,14,16,20.10
2014,06,21,14,17,20.10
2014,06,21,14,18,20.10
2014,06,21,14,19,20.10
2014,06,21,14,20,20.20
2014,06,21,14,21,20.30
2014,06,21,14,22,20.50
2014,06,21,14,23,20.70
2014,06,21,14,24,20.80
2014,06,21,14,25,21.00
2014,06,21,14,26,21.10
2014,06,21,14,27,21.20
2014,06,21,14,28,21.20
2014,06,21,14,29,21.30
2014,06,21,14,30,21.30
2014,06,21,14,31,21.30
2014,06,21,14,32,21.40
2014,06,21,14,33,21.40
2014,06,21,14,34,21.50
2014,06,21,14,35,21.50
2014,06,21,14,36,21.50
2014,06,21,14,37,21.50
2014,06,21,14,38,21.60
2014,06,21,14,39,21.70
2014,06,21,14,40,21.70
2014,06,21,14,41,21.70
2014,06,21,14,42,21.70
2014,06,21,14,43,21.70
2014,06,21,14,44,21.60
2014,06,21,14,45,21.50
2014,06,21,14,46,21.40
2014,06,21,14,47,21.20
2014,06,21,14,48,21.20
2014,06,21,14,49,21.30
2014,06,21,14,50,21.40
2014,06,21,14,51,21.60
2014,06,21,14,52,21.70
2014,06,21,14,53,21.80
2014,06,21,14,54,21.90
2014,06,21,14,55,22.00
2014,06,21,14,56,22.10
2014,06,21,14,57,22.00
2014,06,21,14,58,21.90
2014,06,21,14,59,21.80
2014,06,21,15,00,21.80
2014,06,21,15,01,21.70
2014,06,21,15,02,21.70
2014,06,21,15,03,21.60
2014,06,21,15,04,21.40
2014,06,21,15,05,21.30
2014,06,21,15,06,21.10
2014,06,21,15,07,20.90
2014,06,21,15,08,20.80
2014,06,21,15,09,20.70
2014,06,21,15,10,20.70
2014,06,21,15,11,20.70
2014,06,21,15,12,20.60
2014,06,21,15,13,20.50
2014,06,21,15,14,20.50
2014,06,21,15,15,20.60
2014,06,21,15,16,20.80
2014,06,21,15,17,20.90
2014,06,21,15,18,20.90
2014,06,21,15,19,20.90
2014,06,21,15,20,20.90
2014,06,21,15,21,21.00
2014,06,21,15,22,21.10
2014,06,21,15,23,21.20
2014,06,21,15,24,21.30
2014,06,21,15,25,21.40
2014,06,21,15,26,21.50
2014,06,21,15,27,21.70
2014,06,21,15,28,21.70
2014,06,21,15,29,21.70
2014,06,21,15,30,21.80
2014,06,21,15,31,21.80
2014,06,21,15,32,21.90
2014,06,21,15,33,21.90
2014,06,21,15,34,22.00
2014,06,21,15,35,22.00
2014,06,21,15,36,21.80
2014,06,21,15,37,21.80
2014,06,21,15,38,21.80
2014,06,21,15,39,21.80
2014,06,21,15,40,21.80
2014,06,21,15,41,21.80
2014,06,21,15,42,21.70
2014,06,21,15,43,21.60
2014,06,21,15,44,21.50
2014,06,21,15,45,21.50
2014,06,21,15,46,21.40
2014,06,21,15,47,21.50
2014,06,21,15,48,21.60
2014,06,21,15,49,21.70
2014,06,21,15,50,21.80
2014,06,21,15,51,21.80
2014,06,21,15,52,21.90
2014,06,21,15,53,22.00
2014,06,21,15,54,22.00
2014,06,21,15,55,22.10
2014,06,21,15,56,22.10
2014,06,21,15,57,22.10
2014,06,21,15,58,22.10
2014,06,21,15,59,22.10
2014,06,21,16,00,22.00
2014,06,21,16,01,22.00
2014,06,21,16,02,21.90
2014,06,21,16,03,21.90
2014,06,21,16,04,21.80
2014,06,21,16,05,21.80
2014,06,21,16,06,21.80
2014,06,21,16,07,21.80
2014,06,21,16,08,21.90
2014,06,21,16,09,22.00
2014,06,21,16,10,22.10
2014,06,21,16,11,22.10
2014,06,21,16,12,22.10
2014,06,21,16,13,22.10
2014,06,21,16,14,22.00
2014,06,21,16,15,22.00
2014,06,21,16,16,21.90
2014,06,21,16,17,21.80
2014,06,21,16,18,21.80
2014,06,21,16,19,21.70
2014,06,21,16,20,21.60
2014,06,21,16,21,21.50
2014,06,21,16,22,21.50
2014,06,21,16,23,21.40
2014,06,21,16,24,21.30
2014,06,21,16,25,21.30
2014,06,21,16,26,21.30
2014,06,21,16,27,21.30
2014,06,21,16,28,21.20
2014,06,21,16,29,21.20
2014,06,21,16,30,21.30
2014,06,21,16,31,21.30
2014,06,21,16,32,21.30
2014,06,21,16,33,21.40
2014,06,21,16,34,21.40
2014,06,21,16,35,21.40
2014,06,21,16,36,21.50
2014,06,21,16,37,21.60
2014,06,21,16,38,21.70
2014,06,21,16,39,21.70
2014,06,21,16,40,21.80
2014,06,21,16,41,21.80
2014,06,21,16,42,21.90
2014,06,21,16,43,22.00
2014,06,21,16,44,22.10
2014,06,21,16,45,22.10
2014,06,21,16,46,22.20
2014,06,21,16,47,22.20
2014,06,21,16,48,22.20
2014,06,21,16,49,22.10
2014,06,21,16,50,22.00
2014,06,21,16,51,21.90
2014,06,21,16,52,21.90
2014,06,21,16,53,22.00
2014,06,21,16,54,21.90
2014,06,21,16,55,21.90
2014,06,21,16,56,21.80
2014,06,21,16,57,21.80
2014,06,21,16,58,21.80
2014,06,21,16,59,21.80
2014,06,21,17,00,21.80
2014,06,21,17,01,21.70
2014,06,21,17,02,21.80
2014,06,21,17,03,21.80
2014,06,21,17,04,21.80
2014,06,21,17,05,21.80
2014,06,21,17,06,21.90
2014,06,21,17,07,22.00
2014,06,21,17,08,22.00
2014,06,21,17,09,22.00
2014,06,21,17,10,22.00
2014,06,21,17,11,22.00
2014,06,21,17,12,21.90
2014,06,21,17,13,21.80
2014,06,21,17,14,21.70
2014,06,21,17,15,21.60
2014,06,21,17,16,21.50
2014,06,21,17,17,21.50
2014,06,21,17,18,21.50
2014,06,21,17,19,21.50
2014,06,21,17,20,21.60
2014,06,21,17,21,21.60
2014,06,21,17,22,21.70
2014,06,21,17,23,21.70
2014,06,21,17,24,21.60
2014,06,21,17,25,21.40
2014,06,21,17,26,21.40
2014,06,21,17,27,21.30
2014,06,21,17,28,21.30
2014,06,21,17,29,21.30
2014,06,21,17,30,21.30
2014,06,21,17,31,21.30
2014,06,21,17,32,21.30
2014,06,21,17,33,21.30
2014,06,21,17,34,21.30
2014,06,21,17,35,21.30
2014,06,21,17,36,21.30
2014,06,21,17,37,21.30
2014,06,21,17,38,21.30
2014,06,21,17,39,21.30